Weather History for Stuart, FL

Change the Weather History Date:

Sunday, December 8, 2013

  Actual Average Record
Temperature  
Mean Temperature 76 °F -  
Max Temperature 80 °F 77 °F 86 °F (1948)
Min Temperature 71 °F 61 °F 38 °F (1962)
Cooling Degree Days 10    
Growing Degree Days 26 (Base 50)    
Moisture  
Dew Point 65 °F    
Average Humidity 73    
Maximum Humidity 83    
Minimum Humidity 57    
Precipitation  
Precipitation 0.11 in - - ()
Sea Level Pressure  
Sea Level Pressure 30.19 in    
Wind  
Wind Speed 8 mph (ESE)    
Max Wind Speed 16 mph    
Max Gust Speed 16 mph    
Visibility 9 miles    
Events Rain    
Averages and records for this station are not official NWS values.
T = Trace of Precipitation, MM = Missing Value Source: NWS Daily Summary

Daily Weather History Graph

Daily Weather History Graph

Search for Another Location

Airport:

Trip Planner

Search our weather history database for the weather conditions in past years. The results will help you decide how hot, cold, wet, or windy it might be!

Date:

Astronomy

Dec. 08, 2013 Rise Set
Actual Time 6:58 AM EST 5:27 PM EST
Civil Twilight 6:33 AM EST 5:52 PM EST
Nautical Twilight 6:04 AM EST 6:21 PM EST
Astronomical Twilight 5:35 AM EST 6:50 PM EST
Moon 11:42 AM EST (12/8) 11:47 PM EST (12/8)
Length of Visible Light 11h 19m
Length of Day
10h 28m
Waxing Crescent, 40% of the Moon is Illuminated
Dec 8
Waxing Crescent
Dec 9
First Quarter
Dec 17
Full
Dec 25
Last Quarter
Jan 1
New

Hourly Weather History & Observations

Time (EST) Temp. Heat Index Dew Point Humidity Pressure Visibility Wind Dir Wind Speed Gust Speed Precip Events Conditions
12:15 AM 73.4 °F - 64.4 °F 73% 30.21 in 10.0 mi ESE 8.1 mph - N/A   Clear
12:35 AM 75.2 °F - 64.4 °F 69% 30.20 in 10.0 mi ESE 8.1 mph - N/A   Mostly Cloudy
12:55 AM 75.2 °F - 64.4 °F 69% 30.20 in 10.0 mi East 9.2 mph - N/A   Scattered Clouds
1:15 AM 75.2 °F - 64.4 °F 69% 30.20 in 10.0 mi ESE 11.5 mph - N/A   Scattered Clouds
1:35 AM 75.2 °F - 66.2 °F 73% 30.19 in 10.0 mi ESE 9.2 mph - N/A   Mostly Cloudy
1:55 AM 75.2 °F - 64.4 °F 69% 30.19 in 10.0 mi ESE 9.2 mph - N/A   Scattered Clouds
2:15 AM 75.2 °F - 66.2 °F 73% 30.18 in 10.0 mi ESE 10.4 mph - N/A   Mostly Cloudy
2:35 AM 75.2 °F - 66.2 °F 73% 30.18 in 10.0 mi ESE 8.1 mph - N/A   Mostly Cloudy
2:55 AM 75.2 °F - 66.2 °F 73% 30.18 in 10.0 mi ESE 6.9 mph - N/A   Mostly Cloudy
3:15 AM 75.2 °F - 68.0 °F 78% 30.17 in 10.0 mi ESE 8.1 mph - N/A   Overcast
3:35 AM 75.2 °F - 68.0 °F 78% 30.17 in 10.0 mi ESE 16.1 mph - 0.01 in Rain Rain
3:55 AM 73.4 °F - 68.0 °F 83% 30.17 in 7.0 mi ESE 5.8 mph - 0.11 in Rain Light Rain
4:15 AM 73.4 °F - 68.0 °F 83% 30.17 in 10.0 mi ESE 8.1 mph - N/A   Overcast
4:35 AM 73.4 °F - 66.2 °F 78% 30.18 in 10.0 mi ESE 6.9 mph - N/A   Overcast
4:55 AM 73.4 °F - 66.2 °F 78% 30.18 in 10.0 mi ESE 10.4 mph - N/A   Overcast
5:15 AM 73.4 °F - 64.4 °F 73% 30.18 in 10.0 mi ESE 8.1 mph - N/A   Overcast
5:35 AM 73.4 °F - 64.4 °F 73% 30.19 in 10.0 mi ESE 9.2 mph - N/A   Overcast
5:55 AM 73.4 °F - 64.4 °F 73% 30.19 in 10.0 mi ESE 10.4 mph 16.1 mph N/A   Mostly Cloudy
6:15 AM 73.4 °F - 64.4 °F 73% 30.20 in 10.0 mi East 8.1 mph - N/A   Mostly Cloudy
6:47 AM 73.4 °F - 66.2 °F 78% 30.20 in 7.0 mi ESE 5.8 mph - N/A   Scattered Clouds
7:47 AM 75.2 °F - 66.2 °F 73% 30.23 in 7.0 mi East 6.9 mph - N/A   Scattered Clouds
8:47 AM 77.0 °F - 66.2 °F 69% 30.24 in 7.0 mi ESE 10.4 mph - N/A   Scattered Clouds
10:55 AM 80.6 °F 82.7 °F 66.2 °F 61% 30.24 in 7.0 mi ESE 15.0 mph - N/A   Mostly Cloudy
11:47 AM 80.6 °F 83.2 °F 68.0 °F 65% 30.23 in 7.0 mi ESE 13.8 mph - N/A   Mostly Cloudy
12:47 PM 80.6 °F 83.2 °F 68.0 °F 65% 30.20 in 7.0 mi East 12.7 mph - N/A   Mostly Cloudy
1:47 PM 80.6 °F 82.7 °F 66.2 °F 61% 30.18 in 7.0 mi East 9.2 mph - N/A   Scattered Clouds
2:47 PM 78.8 °F - 66.2 °F 65% 30.16 in 7.0 mi ESE 12.7 mph - N/A   Scattered Clouds
3:47 PM - - - N/A% 30.16 in 7.0 mi SSE 5.8 mph - N/A   Mostly Cloudy
4:47 PM 77.0 °F - 66.2 °F 69% 30.15 in 7.0 mi Calm Calm - N/A   Scattered Clouds
5:47 PM 77.0 °F - 60.8 °F 57% 30.16 in 7.0 mi Calm Calm - N/A   Partly Cloudy
6:47 PM 75.2 °F - 64.4 °F 69% 30.17 in 7.0 mi Calm Calm - N/A   Partly Cloudy
8:15 PM 71.6 °F - 62.6 °F 73% 30.19 in 10.0 mi SSE 4.6 mph - N/A   Clear
8:35 PM 71.6 °F - 64.4 °F 78% 30.19 in 10.0 mi SE 4.6 mph - N/A   Clear
8:55 PM 71.6 °F - 64.4 °F 78% 30.20 in 10.0 mi SE 3.5 mph - N/A   Clear
9:15 PM 71.6 °F - 62.6 °F 73% 30.20 in 10.0 mi SE 3.5 mph - N/A   Scattered Clouds
9:35 PM 71.6 °F - 64.4 °F 78% 30.20 in 10.0 mi SE 3.5 mph - N/A   Scattered Clouds
9:55 PM 71.6 °F - 64.4 °F 78% 30.20 in 10.0 mi Calm Calm - N/A   Clear
10:15 PM 71.6 °F - 64.4 °F 78% 30.20 in 10.0 mi SSE 3.5 mph - N/A   Clear
10:35 PM 71.6 °F - 64.4 °F 78% 30.20 in 10.0 mi Calm Calm - N/A   Scattered Clouds
10:55 PM 71.6 °F - 64.4 °F 78% 30.19 in 10.0 mi Calm Calm - N/A   Mostly Cloudy
11:15 PM 71.6 °F - 64.4 °F 78% 30.19 in 10.0 mi SE 3.5 mph - N/A   Mostly Cloudy
11:35 PM 73.4 °F - 66.2 °F 78% 30.19 in 10.0 mi SSE 4.6 mph - N/A   Mostly Cloudy
11:55 PM 73.4 °F - 64.4 °F 73% 30.18 in 10.0 mi Calm Calm - N/A   Scattered Clouds